Location: Saratoga Springs
(43.0831°N, 73.7850°W)
Time: 11:16:47
(UTC-04:00)

Vanguard 2 Rocket - Pass Details

Date: 18 April 2024
Orbit: 556 x 3304 km, 32.9° (Epoch: 24 May)

Event Time Altitude Azimuth Distance (km) Brightness Sun altitude
Rises 19:30:55 0° 183° (S) 5,721 10.9 1.1°
Reaches altitude 10° 19:36:21 10° 166° (SSE) 5,201 10.5 0.2°
Maximum altitude 19:45:35 18° 130° (SE) 5,164 10.2 -1.5°
Drops below altitude 10° 19:56:18 10° 97° (E) 6,213 10.5 -3.3°
Sets 20:03:45 0° 82° (E) 7,286 10.9 -4.6°
